MERIDIAN 9

导读

MERIDIAN 9是由独联体(CIS)于2020年2月20日08:00成功发射的通信卫星,隶属于“子午线”(Meridian)卫星系列,该系列主要为俄罗斯及周边区域提供北极等高纬度地区的军事和民用通信服务。MERIDIAN 9的入轨进一步强化了高纬度通信覆盖能力,延续了子午线系列接替老式卫星、提升极地通信稳定性的任务目标,是独联体空间通信体系建设的重要节点。

基本信息
目录编号:
45254
目录名称:
MERIDIAN 9
国际标识:
2020-015A
轨道中心:
EARTH
卫星名称:
MERIDIAN 9
卫星全名:
--
卫星状态:
在轨 (已飞行2307 天)
发射日期:
2020-02-20 UTC
国别 :
俄罗斯(独联体) (CIS)
星等 :
--
轨道信息
数据来源 国际轨道数据 AOE轨道数据
星历时间 2026-06-15T07:23:41+0800
6小时前
查看轨道信息
2026-06-10T07:00:00+0800
5天前
查看轨道信息
半长轴 26556.818km 26556.791km
偏心率 0.6858723 0.6859668
轨道倾角 65.522° 65.525°
近地点辐角 277.946° 278.036°
升交点赤经 319.195° 319.740°
平近点角 15.260° 352.516°
近地点 1964.095km 1961.577km
远地点 38393.267km 38395.731km
周期 717.834分钟 717.833分钟
每日圈数 2.006036 2.006039
详细信息
使用方式:
暂无
2D轨道图
3D轨道图
轨道高度分析图
轨道倾角分析图
轨道综合分析图
查看轨道综合分析图